Time,TemperatureF,DewpointF,PressureIn,WindDirection,WindDirectionDegrees,WindSpeedMPH,WindSpeedGustMPH,Humidity,HourlyPrecipIn,Conditions,Clouds,dailyrainin,SoftwareType,DateUTC
2013-06-22 10:00:00,73.0,54.0,-100.00,South,187,0.0,7.0,52,0.00,,,-99.99,,2013-06-22 14:00:00,
2013-06-22 11:00:00,75.0,58.0,-100.00,SE,146,0.0,8.0,56,0.00,,,-99.99,,2013-06-22 15:00:00,
2013-06-22 11:34:00,75.0,58.0,-100.00,SE,146,0.0,8.0,56,0.00,,,-99.99,,2013-06-22 15:34:00,
2013-06-22 11:43:00,75.0,58.0,-100.00,SE,146,0.0,8.0,56,0.00,,,-99.99,,2013-06-22 15:43:00,
2013-06-22 11:53:00,75.0,58.0,-100.00,SE,146,0.0,8.0,56,0.00,,,-99.99,,2013-06-22 15:53:00,
2013-06-22 13:00:00,78.0,62.0,-100.00,SSE,150,4.0,8.0,59,0.00,,,-99.99,,2013-06-22 17:00:00,
2013-06-22 13:43:00,78.0,62.0,-100.00,SSE,150,4.0,8.0,59,0.00,,,-99.99,,2013-06-22 17:43:00,
2013-06-22 13:52:00,78.0,62.0,-100.00,SSE,150,4.0,8.0,59,0.00,,,-99.99,,2013-06-22 17:52:00,
2013-06-22 14:00:00,74.0,57.0,-100.00,East,93,3.0,11.0,56,0.00,,,-99.99,,2013-06-22 18:00:00,
2013-06-22 14:34:00,74.0,57.0,-100.00,East,93,3.0,11.0,56,0.00,,,-99.99,,2013-06-22 18:34:00,
2013-06-22 14:43:00,74.0,57.0,-100.00,East,93,3.0,11.0,56,0.00,,,-99.99,,2013-06-22 18:43:00,
2013-06-22 14:52:00,74.0,57.0,-100.00,East,93,3.0,11.0,56,0.00,,,-99.99,,2013-06-22 18:52:00,
2013-06-22 15:00:00,74.0,60.0,-100.00,SSW,201,6.0,12.0,62,0.00,,,-99.99,,2013-06-22 19:00:00,
2013-06-22 15:33:00,74.0,60.0,-100.00,SSW,201,6.0,12.0,62,0.00,,,-99.99,,2013-06-22 19:33:00,
2013-06-22 15:43:00,74.0,60.0,-100.00,SSW,201,6.0,12.0,62,0.00,,,-99.99,,2013-06-22 19:43:00,
2013-06-22 15:53:00,74.0,60.0,-100.00,SSW,201,6.0,12.0,62,0.00,,,-99.99,,2013-06-22 19:53:00,
2013-06-22 16:00:00,74.0,60.0,-100.00,SSE,158,0.0,11.0,60,0.00,,,-99.99,,2013-06-22 20:00:00,
2013-06-22 16:34:00,74.0,60.0,-100.00,SSE,158,0.0,11.0,60,0.00,,,-99.99,,2013-06-22 20:34:00,
2013-06-22 16:43:00,74.0,60.0,-100.00,SSE,158,0.0,11.0,60,0.00,,,-99.99,,2013-06-22 20:43:00,
2013-06-22 16:53:00,74.0,60.0,-100.00,SSE,158,0.0,11.0,60,0.00,,,-99.99,,2013-06-22 20:53:00,
2013-06-22 17:00:00,75.0,56.0,-100.00,South,189,3.0,12.0,52,0.00,,,-99.99,,2013-06-22 21:00:00,
2013-06-22 17:34:00,75.0,56.0,-100.00,South,189,3.0,12.0,52,0.00,,,-99.99,,2013-06-22 21:34:00,
2013-06-22 17:43:00,75.0,56.0,-100.00,South,189,3.0,12.0,52,0.00,,,-99.99,,2013-06-22 21:43:00,
2013-06-22 17:53:00,75.0,56.0,-100.00,South,189,3.0,12.0,52,0.00,,,-99.99,,2013-06-22 21:53:00,
2013-06-22 18:00:00,74.0,53.0,-100.00,South,177,4.0,14.0,48,0.00,,,-99.99,,2013-06-22 22:00:00,
2013-06-22 18:33:00,74.0,53.0,-100.00,South,177,4.0,14.0,48,0.00,,,-99.99,,2013-06-22 22:33:00,
2013-06-22 18:43:00,74.0,53.0,-100.00,South,177,4.0,14.0,48,0.00,,,-99.99,,2013-06-22 22:43:00,
2013-06-22 18:52:00,74.0,53.0,-100.00,South,177,4.0,14.0,48,0.00,,,-99.99,,2013-06-22 22:52:00,
2013-06-22 19:00:00,73.0,56.0,-100.00,SSE,164,5.0,10.0,57,0.00,,,-99.99,,2013-06-22 23:00:00,
2013-06-22 19:34:00,73.0,56.0,-100.00,SSE,164,5.0,10.0,57,0.00,,,-99.99,,2013-06-22 23:34:00,
2013-06-22 19:43:00,73.0,56.0,-100.00,SSE,164,5.0,10.0,57,0.00,,,-99.99,,2013-06-22 23:43:00,
2013-06-22 19:53:00,73.0,56.0,-100.00,SSE,164,5.0,10.0,57,0.00,,,-99.99,,2013-06-22 23:53:00,
2013-06-22 20:00:00,70.0,57.0,-100.00,SSW,201,0.0,9.0,63,0.00,,,-99.99,,2013-06-23 00:00:00,
2013-06-22 20:34:00,70.0,57.0,-100.00,SSW,201,0.0,9.0,63,0.00,,,-99.99,,2013-06-23 00:34:00,
2013-06-22 20:42:00,70.0,57.0,-100.00,SSW,201,0.0,9.0,63,0.00,,,-99.99,,2013-06-23 00:42:00,
2013-06-22 20:53:00,70.0,57.0,-100.00,SSW,201,0.0,9.0,63,0.00,,,-99.99,,2013-06-23 00:53:00,
2013-06-22 21:00:00,69.0,58.0,-100.00,SSE,166,0.0,11.0,69,0.00,,,-99.99,,2013-06-23 01:00:00,
2013-06-22 21:32:00,69.0,58.0,-100.00,SSE,166,0.0,11.0,69,0.00,,,-99.99,,2013-06-23 01:32:00,
2013-06-22 21:42:00,69.0,58.0,-100.00,SSE,166,0.0,11.0,69,0.00,,,-99.99,,2013-06-23 01:42:00,
2013-06-22 21:52:00,69.0,58.0,-100.00,SSE,166,0.0,11.0,69,0.00,,,-99.99,,2013-06-23 01:52:00,
2013-06-22 22:00:00,68.0,56.0,-100.00,South,190,1.0,7.0,65,0.00,,,-99.99,,2013-06-23 02:00:00,
2013-06-22 22:31:00,68.0,56.0,-100.00,South,190,1.0,7.0,65,0.00,,,-99.99,,2013-06-23 02:31:00,
2013-06-22 22:41:00,68.0,56.0,-100.00,South,190,1.0,7.0,65,0.00,,,-99.99,,2013-06-23 02:41:00,
2013-06-22 22:52:00,68.0,56.0,-100.00,South,190,1.0,7.0,65,0.00,,,-99.99,,2013-06-23 02:52:00,
2013-06-22 23:00:00,68.0,55.0,-100.00,SW,226,3.0,10.0,64,0.00,,,-99.99,,2013-06-23 03:00:00,
2013-06-22 23:31:00,68.0,55.0,-100.00,SW,226,3.0,10.0,64,0.00,,,-99.99,,2013-06-23 03:31:00,
2013-06-22 23:41:00,68.0,55.0,-100.00,SW,226,3.0,10.0,64,0.00,,,-99.99,,2013-06-23 03:41:00,
2013-06-22 23:52:00,68.0,55.0,-100.00,SW,226,3.0,10.0,64,0.00,,,-99.99,,2013-06-23 03:52:00,